Portada
METAR-TAF:

METAR-TAF

Aeroports :

Gaya, Índia

latitud: 24-44-40N, longitud: 84-57-04E, altitud: 116 m

Observació

L'informe es va fer fa 23 minuts, a les 18:00 UTC
Vent calma
Temperatura 27°C
Humitat 89%
Pressió 1011 hPa
Visibilitat: 2500 m
boirina

METAR: VEGY 231800Z 00000KT 2500 BR NSC 27/25 Q1011

Hora: 23:53 (18:23 UTC)


TAF: manca

Observacions i pronòstics meteorològics de més de 4000 aeroports (METAR i TAF).

Les estacions disponibles són els punts grocs i vermells al mapa.

Posi el ratolí al punt desitjat per veure el nom de l'estació.

Feu clic per veure les observacions i els pronòstics meteorològics.

Per canviar el mapa: feu clic els botons verds amb una creu de color negre per apropar; al botó verd amb un guió per allunyar la imatge; o en les fletxes verdes per a mapes adjacents.


METAR-TAF: